Location: Clatteringshaws Loch
(55.0508°N, 4.2860°W)
Time: 02:25:33
(UTC+00:00)

ALOS - Visible Passes

Search period start: 11 February 2016 00:00
Search period end: 21 February 2016 00:00
Orbit: 684 x 688 km, 97.9° (Epoch: 10 February)

Date Brightness Start Highest point End Pass type
(mag) Time Alt. Az. Time Alt. Az. Time Alt. Az.
11 Feb 3.7 18:16:47 11° E 18:19:49 19° NE 18:23:05 10° N visible
11 Feb 2.2 19:55:18 46° SSE 19:56:42 88° WSW 20:01:26 10° NNW visible
11 Feb 4.9 21:33:50 14° W 21:34:53 15° W 21:37:39 10° NW visible
12 Feb 2.9 18:54:45 20° ESE 18:57:13 33° ENE 19:01:24 10° N visible
12 Feb 3.3 20:33:18 35° SW 20:34:36 44° W 20:39:06 10° NNW visible
13 Feb 4.0 17:55:48 10° E 17:58:11 14° NE 18:00:35 10° NNE visible
13 Feb 2.2 19:32:44 32° SE 19:34:49 63° ENE 19:39:27 10° N visible
13 Feb 4.4 21:11:16 20° WSW 21:12:41 23° W 21:16:23 10° NW visible
14 Feb 3.4 18:32:11 12° ESE 18:35:29 24° ENE 18:39:14 10° N visible
14 Feb 2.5 20:10:43 35° S 20:12:35 66° WSW 20:17:16 10° NNW visible
14 Feb 5.2 21:49:31 10° W 21:50:59 11° W 21:52:27 10° WNW visible
15 Feb 2.6 19:10:10 21° SE 19:12:58 43° ENE 19:17:24 10° N visible
15 Feb 3.8 20:48:42 24° SW 20:50:33 33° W 20:54:48 10° NNW visible
16 Feb 3.8 18:10:45 10° E 18:13:49 18° NE 18:16:53 10° NNE visible
16 Feb 2.1 19:48:09 28° SSE 19:50:38 84° ENE 19:55:21 10° NNW visible
16 Feb 4.8 21:26:41 13° WSW 21:28:44 17° W 21:31:48 10° NW visible
17 Feb 3.1 18:47:36 12° ESE 18:51:11 31° ENE 18:55:17 10° N visible
17 Feb 3.1 20:26:08 26° SSW 20:28:30 49° W 20:33:03 10° NNW visible
18 Feb 2.3 19:25:35 19° SE 19:28:45 57° ENE 19:33:21 10° N visible
18 Feb 4.3 21:04:06 17° SW 21:06:33 25° W 21:10:24 10° NW visible
19 Feb 3.5 18:25:53 10° ESE 18:29:28 22° NE 18:33:03 10° N visible
19 Feb 2.4 20:03:34 23° S 20:06:29 73° WSW 20:11:12 10° NNW visible
19 Feb 5.1 21:42:47 10° WSW 21:44:49 13° W 21:46:51 10° WNW visible
20 Feb 2.7 19:03:01 12° SE 19:06:55 39° ENE 19:11:17 10° N visible
20 Feb 3.7 20:41:33 18° SSW 20:44:25 36° W 20:48:46 10° NNW visible
